Location: Quedlinburg
(51.7921°N, 11.1414°E)
Time: 08:37:59
(UTC+02:00)

RS-44 - Pass Details

Date: 18 March 2026
Orbit: 1175 x 1510 km, 82.5° (Epoch: 13 April)

Event Time Altitude Azimuth Distance (km) Brightness Sun altitude
Rises 03:26:09 0° 346° (NNW) 4,408 ? -26.5°
Reaches altitude 10° 03:29:00 10° 341° (NNW) 3,475 ? -26.1°
Maximum altitude 03:36:48 46° 272° (W) 1,866 ? -25.1°
Enters shadow 03:38:20 43° 246° (WSW) 1,966 ? -25.0°
